Year,Month,Day,Hour,Minute,Value (Times are PST for windspeed in km/hr)
2010,07,08,00,00,3.40
2010,07,08,00,01,2.60
2010,07,08,00,02,2.50
2010,07,08,00,03,2.80
2010,07,08,00,04,3.00
2010,07,08,00,05,3.20
2010,07,08,00,06,2.70
2010,07,08,00,07,3.30
2010,07,08,00,08,2.70
2010,07,08,00,09,3.20
2010,07,08,00,10,3.40
2010,07,08,00,11,2.00
2010,07,08,00,12,2.10
2010,07,08,00,13,2.60
2010,07,08,00,14,1.10
2010,07,08,00,15,1.00
2010,07,08,00,16,1.50
2010,07,08,00,17,1.70
2010,07,08,00,18,0.80
2010,07,08,00,19,1.10
2010,07,08,00,20,2.60
2010,07,08,00,21,3.00
2010,07,08,00,22,3.30
2010,07,08,00,23,2.80
2010,07,08,00,24,1.50
2010,07,08,00,25,0.20
2010,07,08,00,26,1.50
2010,07,08,00,27,1.70
2010,07,08,00,28,1.70
2010,07,08,00,29,0.90
2010,07,08,00,30,2.10
2010,07,08,00,31,1.40
2010,07,08,00,32,1.90
2010,07,08,00,33,1.70
2010,07,08,00,34,0.80
2010,07,08,00,35,0.20
2010,07,08,00,36,0.00
2010,07,08,00,37,0.00
2010,07,08,00,38,0.00
2010,07,08,00,39,0.00
2010,07,08,00,40,0.20
2010,07,08,00,41,0.50
2010,07,08,00,42,1.90
2010,07,08,00,43,2.20
2010,07,08,00,44,2.90
2010,07,08,00,45,1.20
2010,07,08,00,46,2.10
2010,07,08,00,47,2.60
2010,07,08,00,48,1.90
2010,07,08,00,49,2.90
2010,07,08,00,50,1.20
2010,07,08,00,51,1.90
2010,07,08,00,52,2.10
2010,07,08,00,53,2.30
2010,07,08,00,54,2.80
2010,07,08,00,55,2.10
2010,07,08,00,56,2.30
2010,07,08,00,57,2.10
2010,07,08,00,58,3.40
2010,07,08,00,59,3.40
2010,07,08,01,00,3.40
2010,07,08,01,01,3.00
2010,07,08,01,02,1.50
2010,07,08,01,03,2.30
2010,07,08,01,04,2.70
2010,07,08,01,05,3.00
2010,07,08,01,06,3.30
2010,07,08,01,07,3.10
2010,07,08,01,08,2.10
2010,07,08,01,09,2.30
2010,07,08,01,10,1.40
2010,07,08,01,11,0.60
2010,07,08,01,12,0.20
2010,07,08,01,13,1.50
2010,07,08,01,14,0.80
2010,07,08,01,15,2.60
2010,07,08,01,16,2.20
2010,07,08,01,17,3.10
2010,07,08,01,18,3.40
2010,07,08,01,19,2.90
2010,07,08,01,20,0.30
2010,07,08,01,21,0.10
2010,07,08,01,22,0.00
2010,07,08,01,23,2.80
2010,07,08,01,24,3.00
2010,07,08,01,25,3.10
2010,07,08,01,26,3.30
2010,07,08,01,27,0.90
2010,07,08,01,28,0.80
2010,07,08,01,29,0.30
2010,07,08,01,30,0.30
2010,07,08,01,31,0.20
2010,07,08,01,32,0.80
2010,07,08,01,33,3.30
2010,07,08,01,34,4.10
2010,07,08,01,35,4.60
2010,07,08,01,36,5.20
2010,07,08,01,37,3.70
2010,07,08,01,38,4.00
2010,07,08,01,39,3.50
2010,07,08,01,40,3.50
2010,07,08,01,41,3.30
2010,07,08,01,42,3.00
2010,07,08,01,43,2.10
2010,07,08,01,44,1.70
2010,07,08,01,45,2.30
2010,07,08,01,46,2.40
2010,07,08,01,47,2.90
2010,07,08,01,48,3.90
2010,07,08,01,49,4.00
2010,07,08,01,50,4.10
2010,07,08,01,51,3.70
2010,07,08,01,52,2.90
2010,07,08,01,53,2.30
2010,07,08,01,54,1.80
2010,07,08,01,55,0.90
2010,07,08,01,56,1.10
2010,07,08,01,57,1.70
2010,07,08,01,58,2.40
2010,07,08,01,59,2.30
2010,07,08,02,00,2.60
2010,07,08,02,01,2.40
2010,07,08,02,02,2.50
2010,07,08,02,03,4.00
2010,07,08,02,04,4.30
2010,07,08,02,05,1.70
2010,07,08,02,06,2.60
2010,07,08,02,07,2.30
2010,07,08,02,08,2.40
2010,07,08,02,09,0.60
2010,07,08,02,10,0.40
2010,07,08,02,11,2.30
2010,07,08,02,12,3.20
2010,07,08,02,13,2.40
2010,07,08,02,14,2.30
2010,07,08,02,15,2.20
2010,07,08,02,16,3.00
2010,07,08,02,17,4.30
2010,07,08,02,18,4.40
2010,07,08,02,19,4.00
2010,07,08,02,20,4.10
2010,07,08,02,21,3.30
2010,07,08,02,22,4.40
2010,07,08,02,23,4.20
2010,07,08,02,24,3.30
2010,07,08,02,25,3.00
2010,07,08,02,26,3.50
2010,07,08,02,27,3.00
2010,07,08,02,28,2.20
2010,07,08,02,29,1.90
2010,07,08,02,30,0.90
2010,07,08,02,31,1.30
2010,07,08,02,32,2.20
2010,07,08,02,33,2.80
2010,07,08,02,34,2.60
2010,07,08,02,35,3.40
2010,07,08,02,36,3.00
2010,07,08,02,37,3.00
2010,07,08,02,38,4.70
2010,07,08,02,39,4.80
2010,07,08,02,40,5.40
2010,07,08,02,41,5.00
2010,07,08,02,42,4.30
2010,07,08,02,43,3.90
2010,07,08,02,44,4.50
2010,07,08,02,45,4.00
2010,07,08,02,46,4.30
2010,07,08,02,47,5.10
2010,07,08,02,48,5.60
2010,07,08,02,49,5.40
2010,07,08,02,50,5.30
2010,07,08,02,51,5.10
2010,07,08,02,52,5.00
2010,07,08,02,53,5.40
2010,07,08,02,54,5.30
2010,07,08,02,55,5.00
2010,07,08,02,56,5.00
2010,07,08,02,57,3.80
2010,07,08,02,58,3.60
2010,07,08,02,59,3.80
2010,07,08,03,00,4.60
2010,07,08,03,01,4.30
2010,07,08,03,02,4.80
2010,07,08,03,03,4.70
2010,07,08,03,04,4.10
2010,07,08,03,05,3.80
2010,07,08,03,06,5.10
2010,07,08,03,07,5.10
2010,07,08,03,08,4.70
2010,07,08,03,09,4.70
2010,07,08,03,10,4.30
2010,07,08,03,11,4.60
2010,07,08,03,12,4.20
2010,07,08,03,13,4.10
2010,07,08,03,14,4.40
2010,07,08,03,15,2.80
2010,07,08,03,16,3.70
2010,07,08,03,17,3.40
2010,07,08,03,18,3.40
2010,07,08,03,19,3.90
2010,07,08,03,20,4.30
2010,07,08,03,21,5.10
2010,07,08,03,22,4.60
2010,07,08,03,23,3.90
2010,07,08,03,24,3.90
2010,07,08,03,25,4.60
2010,07,08,03,26,4.80
2010,07,08,03,27,5.00
2010,07,08,03,28,5.30
2010,07,08,03,29,5.10
2010,07,08,03,30,5.20
2010,07,08,03,31,5.60
2010,07,08,03,32,5.30
2010,07,08,03,33,5.60
2010,07,08,03,34,5.80
2010,07,08,03,35,5.40
2010,07,08,03,36,5.90
2010,07,08,03,37,6.20
2010,07,08,03,38,6.20
2010,07,08,03,39,6.40
2010,07,08,03,40,5.80
2010,07,08,03,41,4.90
2010,07,08,03,42,4.80
2010,07,08,03,43,4.70
2010,07,08,03,44,4.50
2010,07,08,03,45,4.70
2010,07,08,03,46,4.80
2010,07,08,03,47,5.10
2010,07,08,03,48,4.90
2010,07,08,03,49,4.90
2010,07,08,03,50,5.10
2010,07,08,03,51,5.30
2010,07,08,03,52,5.60
2010,07,08,03,53,5.90
2010,07,08,03,54,6.40
2010,07,08,03,55,6.70
2010,07,08,03,56,6.30
2010,07,08,03,57,5.60
2010,07,08,03,58,5.60
2010,07,08,03,59,5.30
2010,07,08,04,00,5.50
2010,07,08,04,01,5.60
2010,07,08,04,02,5.70
2010,07,08,04,03,6.50
2010,07,08,04,04,6.20
2010,07,08,04,05,6.00
2010,07,08,04,06,5.40
2010,07,08,04,07,5.90
2010,07,08,04,08,5.80
2010,07,08,04,09,6.20
2010,07,08,04,10,6.60
2010,07,08,04,11,6.70
2010,07,08,04,12,7.20
2010,07,08,04,13,6.90
2010,07,08,04,14,6.50
2010,07,08,04,15,6.80
2010,07,08,04,16,6.00
2010,07,08,04,17,6.30
2010,07,08,04,18,6.40
2010,07,08,04,19,5.30
2010,07,08,04,20,4.70
2010,07,08,04,21,5.40
2010,07,08,04,22,5.40
2010,07,08,04,23,6.10
2010,07,08,04,24,6.20
2010,07,08,04,25,6.90
2010,07,08,04,26,6.70
2010,07,08,04,27,5.80
2010,07,08,04,28,5.20
2010,07,08,04,29,5.80
2010,07,08,04,30,6.00
2010,07,08,04,31,5.70
2010,07,08,04,32,5.60
2010,07,08,04,33,5.60
2010,07,08,04,34,6.00
2010,07,08,04,35,4.70
2010,07,08,04,36,4.70
2010,07,08,04,37,4.50
2010,07,08,04,38,5.00
2010,07,08,04,39,4.90
2010,07,08,04,40,5.10
2010,07,08,04,41,5.00
2010,07,08,04,42,4.30
2010,07,08,04,43,3.80
2010,07,08,04,44,3.40
2010,07,08,04,45,4.10
2010,07,08,04,46,4.50
2010,07,08,04,47,3.90
2010,07,08,04,48,5.10
2010,07,08,04,49,4.40
2010,07,08,04,50,4.30
2010,07,08,04,51,4.70
2010,07,08,04,52,4.20
2010,07,08,04,53,3.90
2010,07,08,04,54,3.50
2010,07,08,04,55,3.90
2010,07,08,04,56,3.10
2010,07,08,04,57,3.00
2010,07,08,04,58,3.90
2010,07,08,04,59,3.40
2010,07,08,05,00,2.60
2010,07,08,05,01,2.60
2010,07,08,05,02,3.40
2010,07,08,05,03,3.50
2010,07,08,05,04,3.70
2010,07,08,05,05,3.50
2010,07,08,05,06,4.30
2010,07,08,05,07,4.50
2010,07,08,05,08,4.50
2010,07,08,05,09,5.40
2010,07,08,05,10,5.20
2010,07,08,05,11,5.60
2010,07,08,05,12,5.40
2010,07,08,05,13,5.20
2010,07,08,05,14,5.60
2010,07,08,05,15,5.20
2010,07,08,05,16,6.30
2010,07,08,05,17,6.90
2010,07,08,05,18,7.20
2010,07,08,05,19,7.10
2010,07,08,05,20,7.60
2010,07,08,05,21,6.80
2010,07,08,05,22,6.50
2010,07,08,05,23,5.80
2010,07,08,05,24,6.00
2010,07,08,05,25,6.80
2010,07,08,05,26,7.00
2010,07,08,05,27,7.40
2010,07,08,05,28,7.20
2010,07,08,05,29,7.40
2010,07,08,05,30,8.10
2010,07,08,05,31,7.70
2010,07,08,05,32,7.30
2010,07,08,05,33,7.90
2010,07,08,05,34,7.20
2010,07,08,05,35,8.40
2010,07,08,05,36,8.10
2010,07,08,05,37,6.60
2010,07,08,05,38,5.80
2010,07,08,05,39,7.10
2010,07,08,05,40,7.50
2010,07,08,05,41,8.60
2010,07,08,05,42,7.80
2010,07,08,05,43,9.30
2010,07,08,05,44,7.70
2010,07,08,05,45,5.40
2010,07,08,05,46,6.00
2010,07,08,05,47,5.20
2010,07,08,05,48,6.70
2010,07,08,05,49,5.80
2010,07,08,05,50,6.00
2010,07,08,05,51,6.30
2010,07,08,05,52,5.10
2010,07,08,05,53,6.40
2010,07,08,05,54,7.30
2010,07,08,05,55,6.60
2010,07,08,05,56,5.60
2010,07,08,05,57,6.40
2010,07,08,05,58,5.30
2010,07,08,05,59,5.60
2010,07,08,06,00,5.40
2010,07,08,06,01,5.10
2010,07,08,06,02,4.80
2010,07,08,06,03,5.20
2010,07,08,06,04,5.40
2010,07,08,06,05,5.10
2010,07,08,06,06,3.40
2010,07,08,06,07,5.00
2010,07,08,06,08,5.10
2010,07,08,06,09,3.70
2010,07,08,06,10,4.70
2010,07,08,06,11,3.90
2010,07,08,06,12,4.30
2010,07,08,06,13,4.90
2010,07,08,06,14,4.50
2010,07,08,06,15,3.90
2010,07,08,06,16,4.70
2010,07,08,06,17,5.80
2010,07,08,06,18,5.60
2010,07,08,06,19,4.70
2010,07,08,06,20,4.50
2010,07,08,06,21,5.50
2010,07,08,06,22,5.80
2010,07,08,06,23,4.60
2010,07,08,06,24,5.70
2010,07,08,06,25,4.90
2010,07,08,06,26,5.30
2010,07,08,06,27,5.70
2010,07,08,06,28,4.90
2010,07,08,06,29,5.00
2010,07,08,06,30,4.70
2010,07,08,06,31,5.20
2010,07,08,06,32,4.50
2010,07,08,06,33,5.00
2010,07,08,06,34,6.10
2010,07,08,06,35,6.00
2010,07,08,06,36,6.30
2010,07,08,06,37,5.50
2010,07,08,06,38,5.80
2010,07,08,06,39,5.10
2010,07,08,06,40,5.70
2010,07,08,06,41,5.10
2010,07,08,06,42,5.60
2010,07,08,06,43,5.10
2010,07,08,06,44,4.90
2010,07,08,06,45,5.10
2010,07,08,06,46,5.40
2010,07,08,06,47,4.90
2010,07,08,06,48,4.90
2010,07,08,06,49,5.10
2010,07,08,06,50,4.80
2010,07,08,06,51,6.30
2010,07,08,06,52,6.10
2010,07,08,06,53,6.00
2010,07,08,06,54,6.00
2010,07,08,06,55,4.60
2010,07,08,06,56,5.90
2010,07,08,06,57,6.10
2010,07,08,06,58,5.10
2010,07,08,06,59,5.10
2010,07,08,07,00,5.30
2010,07,08,07,01,6.00
2010,07,08,07,02,5.30
2010,07,08,07,03,3.30
2010,07,08,07,04,4.10
2010,07,08,07,05,4.50
2010,07,08,07,06,4.00
2010,07,08,07,07,3.70
2010,07,08,07,08,4.30
2010,07,08,07,09,0.90
2010,07,08,07,10,1.10
2010,07,08,07,11,2.20
2010,07,08,07,12,1.40
2010,07,08,07,13,1.10
2010,07,08,07,14,3.00
2010,07,08,07,15,0.50
2010,07,08,07,16,1.10
2010,07,08,07,17,0.10
2010,07,08,07,18,1.50
2010,07,08,07,19,1.60
2010,07,08,07,20,2.70
2010,07,08,07,21,3.60
2010,07,08,07,22,1.40
2010,07,08,07,23,1.80
2010,07,08,07,24,2.90
2010,07,08,07,25,3.20
2010,07,08,07,26,0.80
2010,07,08,07,27,3.70
2010,07,08,07,28,1.30
2010,07,08,07,29,1.40
2010,07,08,07,30,1.20
2010,07,08,07,31,3.00
2010,07,08,07,32,2.60
2010,07,08,07,33,1.90
2010,07,08,07,34,3.40
2010,07,08,07,35,3.50
2010,07,08,07,36,5.00
2010,07,08,07,37,5.60
2010,07,08,07,38,6.80
2010,07,08,07,39,5.70
2010,07,08,07,40,6.20
2010,07,08,07,41,7.30
2010,07,08,07,42,5.10
2010,07,08,07,43,6.00
2010,07,08,07,44,5.40
2010,07,08,07,45,3.00
2010,07,08,07,46,3.30
2010,07,08,07,47,0.90
2010,07,08,07,48,1.70
2010,07,08,07,49,2.40
2010,07,08,07,50,3.30
2010,07,08,07,51,3.80
2010,07,08,07,52,2.70
2010,07,08,07,53,3.70
2010,07,08,07,54,2.90
2010,07,08,07,55,2.90
2010,07,08,07,56,1.70
2010,07,08,07,57,0.70
2010,07,08,07,58,0.20
2010,07,08,07,59,0.30
2010,07,08,08,00,2.70
2010,07,08,08,01,1.40
2010,07,08,08,02,1.30
2010,07,08,08,03,3.90
2010,07,08,08,04,1.50
2010,07,08,08,05,0.20
2010,07,08,08,06,0.20
2010,07,08,08,07,0.30
2010,07,08,08,08,0.50
2010,07,08,08,09,0.40
2010,07,08,08,10,0.00
2010,07,08,08,11,0.60
2010,07,08,08,12,2.50
2010,07,08,08,13,0.40
2010,07,08,08,14,0.50
2010,07,08,08,15,1.30
2010,07,08,08,16,0.70
2010,07,08,08,17,0.20
2010,07,08,08,18,0.00
2010,07,08,08,19,0.20
2010,07,08,08,20,0.30
2010,07,08,08,21,0.10
2010,07,08,08,22,0.00
2010,07,08,08,23,0.30
2010,07,08,08,24,0.40
2010,07,08,08,25,5.70
2010,07,08,08,26,4.40
2010,07,08,08,27,7.20
2010,07,08,08,28,6.50
2010,07,08,08,29,12.10
2010,07,08,08,30,11.00
2010,07,08,08,31,10.00
2010,07,08,08,32,8.80
2010,07,08,08,33,7.80
2010,07,08,08,34,13.80
2010,07,08,08,35,6.40
2010,07,08,08,36,14.50
2010,07,08,08,37,15.60
2010,07,08,08,38,17.10
2010,07,08,08,39,13.60
2010,07,08,08,40,8.30
2010,07,08,08,41,13.60
2010,07,08,08,42,9.30
2010,07,08,08,43,14.60
2010,07,08,08,44,9.80
2010,07,08,08,45,5.30
2010,07,08,08,46,8.10
2010,07,08,08,47,10.10
2010,07,08,08,48,8.50
2010,07,08,08,49,12.50
2010,07,08,08,50,15.50
2010,07,08,08,51,7.00
2010,07,08,08,52,14.20
2010,07,08,08,53,14.00
2010,07,08,08,54,10.00
2010,07,08,08,55,7.50
2010,07,08,08,56,5.20
2010,07,08,08,57,7.10
2010,07,08,08,58,15.00
2010,07,08,08,59,13.50
2010,07,08,09,00,15.10
2010,07,08,09,01,10.50
2010,07,08,09,02,5.80
2010,07,08,09,03,10.90
2010,07,08,09,04,5.60
2010,07,08,09,05,12.90
2010,07,08,09,06,8.20
2010,07,08,09,07,13.70
2010,07,08,09,08,9.50
2010,07,08,09,09,5.40
2010,07,08,09,10,7.20
2010,07,08,09,11,8.90
2010,07,08,09,12,7.20
2010,07,08,09,13,12.00
2010,07,08,09,14,7.50
2010,07,08,09,15,10.60
2010,07,08,09,16,8.60
2010,07,08,09,17,9.70
2010,07,08,09,18,9.70
2010,07,08,09,19,11.70
2010,07,08,09,20,9.80
2010,07,08,09,21,9.30
2010,07,08,09,22,8.50
2010,07,08,09,23,14.30
2010,07,08,09,24,13.10
2010,07,08,09,25,15.20
2010,07,08,09,26,7.70
2010,07,08,09,27,8.00
2010,07,08,09,28,10.60
2010,07,08,09,29,7.10
2010,07,08,09,30,10.90
2010,07,08,09,31,13.60
2010,07,08,09,32,13.40
2010,07,08,09,33,13.60
2010,07,08,09,34,5.60
2010,07,08,09,35,8.10
2010,07,08,09,36,8.20
2010,07,08,09,37,5.80
2010,07,08,09,38,9.00
2010,07,08,09,39,6.50
2010,07,08,09,40,8.40
2010,07,08,09,41,8.80
2010,07,08,09,42,9.90
2010,07,08,09,43,5.10
2010,07,08,09,44,8.40
2010,07,08,09,45,7.30
2010,07,08,09,46,8.20
2010,07,08,09,47,8.30
2010,07,08,09,48,12.90
2010,07,08,09,49,16.10
2010,07,08,09,50,16.30
2010,07,08,09,51,10.40
2010,07,08,09,52,6.80
2010,07,08,09,53,12.50
2010,07,08,09,54,7.60
2010,07,08,09,55,7.80
2010,07,08,09,56,5.90
2010,07,08,09,57,6.40
2010,07,08,09,58,11.40
2010,07,08,09,59,9.00
2010,07,08,10,00,5.40
2010,07,08,10,01,12.50
2010,07,08,10,02,8.00
2010,07,08,10,03,7.90
2010,07,08,10,04,12.30
2010,07,08,10,05,16.00
2010,07,08,10,06,10.00
2010,07,08,10,07,11.50
2010,07,08,10,08,12.80
2010,07,08,10,09,9.30
2010,07,08,10,10,9.20
2010,07,08,10,11,6.00
2010,07,08,10,12,5.70
2010,07,08,10,13,10.80
2010,07,08,10,14,6.60
2010,07,08,10,15,5.10
2010,07,08,10,16,4.80
2010,07,08,10,17,8.90
2010,07,08,10,18,11.80
2010,07,08,10,19,10.00
2010,07,08,10,20,10.20
2010,07,08,10,21,11.00
2010,07,08,10,22,8.50
2010,07,08,10,23,9.40
2010,07,08,10,24,16.70
2010,07,08,10,25,11.50
2010,07,08,10,26,8.00
2010,07,08,10,27,6.70
2010,07,08,10,28,9.30
2010,07,08,10,29,7.00
2010,07,08,10,30,14.10
2010,07,08,10,31,17.90
2010,07,08,10,32,15.20
2010,07,08,10,33,11.00
2010,07,08,10,34,16.80
2010,07,08,10,35,15.30
2010,07,08,10,36,11.80
2010,07,08,10,37,7.00
2010,07,08,10,38,6.00
2010,07,08,10,39,13.60
2010,07,08,10,40,8.10
2010,07,08,10,41,6.70
2010,07,08,10,42,6.00
2010,07,08,10,43,6.70
2010,07,08,10,44,6.10
2010,07,08,10,45,8.20
2010,07,08,10,46,11.80
2010,07,08,10,47,11.30
2010,07,08,10,48,8.90
2010,07,08,10,49,9.10
2010,07,08,10,50,17.60
2010,07,08,10,51,10.70
2010,07,08,10,52,10.70
2010,07,08,10,53,8.50
2010,07,08,10,54,9.90
2010,07,08,10,55,8.40
2010,07,08,10,56,8.80
2010,07,08,10,57,6.70
2010,07,08,10,58,8.00
2010,07,08,10,59,7.20
2010,07,08,11,00,7.00
2010,07,08,11,01,5.90
2010,07,08,11,02,9.30
2010,07,08,11,03,7.20
2010,07,08,11,04,11.60
2010,07,08,11,05,8.70
2010,07,08,11,06,8.90
2010,07,08,11,07,8.00
2010,07,08,11,08,4.50
2010,07,08,11,09,6.60
2010,07,08,11,10,7.50
2010,07,08,11,11,10.00
2010,07,08,11,12,7.90
2010,07,08,11,13,9.70
2010,07,08,11,14,10.40
2010,07,08,11,15,12.70
2010,07,08,11,16,7.20
2010,07,08,11,17,11.00
2010,07,08,11,18,7.70
2010,07,08,11,19,11.30
2010,07,08,11,20,8.10
2010,07,08,11,21,7.70
2010,07,08,11,22,6.70
2010,07,08,11,23,7.70
2010,07,08,11,24,6.00
2010,07,08,11,25,4.30
2010,07,08,11,26,6.50
2010,07,08,11,27,10.60
2010,07,08,11,28,9.70
2010,07,08,11,29,3.90
2010,07,08,11,30,5.60
2010,07,08,11,31,9.30
2010,07,08,11,32,7.40
2010,07,08,11,33,5.80
2010,07,08,11,34,9.80
2010,07,08,11,35,10.70
2010,07,08,11,36,9.30
2010,07,08,11,37,6.40
2010,07,08,11,38,5.60
2010,07,08,11,39,7.80
2010,07,08,11,40,9.00
2010,07,08,11,41,10.50
2010,07,08,11,42,10.50
2010,07,08,11,43,10.20
2010,07,08,11,44,7.10
2010,07,08,11,45,9.60
2010,07,08,11,46,7.60
2010,07,08,11,47,8.40
2010,07,08,11,48,7.70
2010,07,08,11,49,4.30
2010,07,08,11,50,7.00
2010,07,08,11,51,6.80
2010,07,08,11,52,4.30
2010,07,08,11,53,5.80
2010,07,08,11,54,9.10
2010,07,08,11,55,8.10
2010,07,08,11,56,8.90
2010,07,08,11,57,7.20
2010,07,08,11,58,4.60
2010,07,08,11,59,5.10
2010,07,08,12,00,6.00
2010,07,08,12,01,8.10
2010,07,08,12,02,9.10
2010,07,08,12,03,11.70
2010,07,08,12,04,5.80
2010,07,08,12,05,8.30
2010,07,08,12,06,5.60
2010,07,08,12,07,7.50
2010,07,08,12,08,5.60
2010,07,08,12,09,7.50
2010,07,08,12,10,8.20
2010,07,08,12,11,6.70
2010,07,08,12,12,7.50
2010,07,08,12,13,5.30
2010,07,08,12,14,8.30
2010,07,08,12,15,7.90
2010,07,08,12,16,7.60
2010,07,08,12,17,7.10
2010,07,08,12,18,6.40
2010,07,08,12,19,6.90
2010,07,08,12,20,7.10
2010,07,08,12,21,5.60
2010,07,08,12,22,7.00
2010,07,08,12,23,6.90
2010,07,08,12,24,5.20
2010,07,08,12,25,6.40
2010,07,08,12,26,6.60
2010,07,08,12,27,8.60
2010,07,08,12,28,5.20
2010,07,08,12,29,5.10
2010,07,08,12,30,7.40
2010,07,08,12,31,8.30
2010,07,08,12,32,6.40
2010,07,08,12,33,4.40
2010,07,08,12,34,6.20
2010,07,08,12,35,6.40
2010,07,08,12,36,7.10
2010,07,08,12,37,4.10
2010,07,08,12,38,3.10
2010,07,08,12,39,4.80
2010,07,08,12,40,4.20
2010,07,08,12,41,6.90
2010,07,08,12,42,7.60
2010,07,08,12,43,6.10
2010,07,08,12,44,6.60
2010,07,08,12,45,4.10
2010,07,08,12,46,3.70
2010,07,08,12,47,6.90
2010,07,08,12,48,5.90
2010,07,08,12,49,4.80
2010,07,08,12,50,4.70
2010,07,08,12,51,6.40
2010,07,08,12,52,6.40
2010,07,08,12,53,6.10
2010,07,08,12,54,4.90
2010,07,08,12,55,7.10
2010,07,08,12,56,7.10
2010,07,08,12,57,4.70
2010,07,08,12,58,6.20
2010,07,08,12,59,6.10
2010,07,08,13,00,3.60
2010,07,08,13,01,6.80
2010,07,08,13,02,5.00
2010,07,08,13,03,5.10
2010,07,08,13,04,5.60
2010,07,08,13,05,7.00
2010,07,08,13,06,10.30
2010,07,08,13,07,6.30
2010,07,08,13,08,5.20
2010,07,08,13,09,4.30
2010,07,08,13,10,6.40
2010,07,08,13,11,4.40
2010,07,08,13,12,5.10
2010,07,08,13,13,6.40
2010,07,08,13,14,4.90
2010,07,08,13,15,4.30
2010,07,08,13,16,6.00
2010,07,08,13,17,6.40
2010,07,08,13,18,8.30
2010,07,08,13,19,4.30
2010,07,08,13,20,4.50
2010,07,08,13,21,7.90
2010,07,08,13,22,3.20
2010,07,08,13,23,5.60
2010,07,08,13,24,7.80
2010,07,08,13,25,8.00
2010,07,08,13,26,3.90
2010,07,08,13,27,3.30
2010,07,08,13,28,6.20
2010,07,08,13,29,2.20
2010,07,08,13,30,3.50
2010,07,08,13,31,3.20
2010,07,08,13,32,2.90
2010,07,08,13,33,3.60
2010,07,08,13,34,2.60
2010,07,08,13,35,3.80
2010,07,08,13,36,5.50
2010,07,08,13,37,5.50
2010,07,08,13,38,4.10
2010,07,08,13,39,2.80
2010,07,08,13,40,3.10
2010,07,08,13,41,3.20
2010,07,08,13,42,4.50
2010,07,08,13,43,3.00
2010,07,08,13,44,4.70
2010,07,08,13,45,5.60
2010,07,08,13,46,5.20
2010,07,08,13,47,3.80
2010,07,08,13,48,3.50
2010,07,08,13,49,2.40
2010,07,08,13,50,2.30
2010,07,08,13,51,3.50
2010,07,08,13,52,3.80
2010,07,08,13,53,4.30
2010,07,08,13,54,4.70
2010,07,08,13,55,5.60
2010,07,08,13,56,6.50
2010,07,08,13,57,5.80
2010,07,08,13,58,5.30
2010,07,08,13,59,3.50
2010,07,08,14,00,4.70
2010,07,08,14,01,3.90
2010,07,08,14,02,5.50
2010,07,08,14,03,5.00
2010,07,08,14,04,5.20
2010,07,08,14,05,3.60
2010,07,08,14,06,5.60
2010,07,08,14,07,3.30
2010,07,08,14,08,4.50
2010,07,08,14,09,1.40
2010,07,08,14,10,4.50
2010,07,08,14,11,5.00
2010,07,08,14,12,5.10
2010,07,08,14,13,4.80
2010,07,08,14,14,3.80
2010,07,08,14,15,4.30
2010,07,08,14,16,4.50
2010,07,08,14,17,5.70
2010,07,08,14,18,4.20
2010,07,08,14,19,6.40
2010,07,08,14,20,6.80
2010,07,08,14,21,6.80
2010,07,08,14,22,6.70
2010,07,08,14,23,6.30
2010,07,08,14,24,3.10
2010,07,08,14,25,4.10
2010,07,08,14,26,2.30
2010,07,08,14,27,6.40
2010,07,08,14,28,5.40
2010,07,08,14,29,5.10
2010,07,08,14,30,7.00
2010,07,08,14,31,6.20
2010,07,08,14,32,4.80
2010,07,08,14,33,6.40
2010,07,08,14,34,8.00
2010,07,08,14,35,7.70
2010,07,08,14,36,8.20
2010,07,08,14,37,9.00
2010,07,08,14,38,9.70
2010,07,08,14,39,7.00
2010,07,08,14,40,9.60
2010,07,08,14,41,5.70
2010,07,08,14,42,7.60
2010,07,08,14,43,6.40
2010,07,08,14,44,6.40
2010,07,08,14,45,6.80
2010,07,08,14,46,8.50
2010,07,08,14,47,6.90
2010,07,08,14,48,8.00
2010,07,08,14,49,6.40
2010,07,08,14,50,5.80
2010,07,08,14,51,6.60
2010,07,08,14,52,7.20
2010,07,08,14,53,6.10
2010,07,08,14,54,7.20
2010,07,08,14,55,6.40
2010,07,08,14,56,3.50
2010,07,08,14,57,4.60
2010,07,08,14,58,5.60
2010,07,08,14,59,5.10
2010,07,08,15,00,5.60
2010,07,08,15,01,7.20
2010,07,08,15,02,6.30
2010,07,08,15,03,5.40
2010,07,08,15,04,5.20
2010,07,08,15,05,3.70
2010,07,08,15,06,5.30
2010,07,08,15,07,3.80
2010,07,08,15,08,4.20
2010,07,08,15,09,4.60
2010,07,08,15,10,3.50
2010,07,08,15,11,6.80
2010,07,08,15,12,3.80
2010,07,08,15,13,5.30
2010,07,08,15,14,4.40
2010,07,08,15,15,6.80
2010,07,08,15,16,4.80
2010,07,08,15,17,5.40
2010,07,08,15,18,6.60
2010,07,08,15,19,5.80
2010,07,08,15,20,5.70
2010,07,08,15,21,4.70
2010,07,08,15,22,5.10
2010,07,08,15,23,7.30
2010,07,08,15,24,5.10
2010,07,08,15,25,4.30
2010,07,08,15,26,5.30
2010,07,08,15,27,2.30
2010,07,08,15,28,4.90
2010,07,08,15,29,3.60
2010,07,08,15,30,5.70
2010,07,08,15,31,5.70
2010,07,08,15,32,6.40
2010,07,08,15,33,6.00
2010,07,08,15,34,6.10
2010,07,08,15,35,5.80
2010,07,08,15,36,5.00
2010,07,08,15,37,4.70
2010,07,08,15,38,6.80
2010,07,08,15,39,5.60
2010,07,08,15,40,6.60
2010,07,08,15,41,5.50
2010,07,08,15,42,6.10
2010,07,08,15,43,8.50
2010,07,08,15,44,6.70
2010,07,08,15,45,7.60
2010,07,08,15,46,5.70
2010,07,08,15,47,6.80
2010,07,08,15,48,3.50
2010,07,08,15,49,5.00
2010,07,08,15,50,7.40
2010,07,08,15,51,5.90
2010,07,08,15,52,6.20
2010,07,08,15,53,5.10
2010,07,08,15,54,3.30
2010,07,08,15,55,6.80
2010,07,08,15,56,6.10
2010,07,08,15,57,4.80
2010,07,08,15,58,2.30
2010,07,08,15,59,4.70
2010,07,08,16,00,3.70
2010,07,08,16,01,4.60
2010,07,08,16,02,5.10
2010,07,08,16,03,3.50
2010,07,08,16,04,3.50
2010,07,08,16,05,2.40
2010,07,08,16,06,3.50
2010,07,08,16,07,5.60
2010,07,08,16,08,6.60
2010,07,08,16,09,3.50
2010,07,08,16,10,5.00
2010,07,08,16,11,7.00
2010,07,08,16,12,4.40
2010,07,08,16,13,7.40
2010,07,08,16,14,4.90
2010,07,08,16,15,7.10
2010,07,08,16,16,2.40
2010,07,08,16,17,5.50
2010,07,08,16,18,6.20
2010,07,08,16,19,8.90
2010,07,08,16,20,5.60
2010,07,08,16,21,4.70
2010,07,08,16,22,8.10
2010,07,08,16,23,6.60
2010,07,08,16,24,5.30
2010,07,08,16,25,7.80
2010,07,08,16,26,7.50
2010,07,08,16,27,4.70
2010,07,08,16,28,7.80
2010,07,08,16,29,8.90
2010,07,08,16,30,10.10
2010,07,08,16,31,9.10
2010,07,08,16,32,9.40
2010,07,08,16,33,10.00
2010,07,08,16,34,11.90
2010,07,08,16,35,8.90
2010,07,08,16,36,11.40
2010,07,08,16,37,9.40
2010,07,08,16,38,10.90
2010,07,08,16,39,7.40
2010,07,08,16,40,13.00
2010,07,08,16,41,8.90
2010,07,08,16,42,11.80
2010,07,08,16,43,10.00
2010,07,08,16,44,9.30
2010,07,08,16,45,11.80
2010,07,08,16,46,10.90
2010,07,08,16,47,8.60
2010,07,08,16,48,4.70
2010,07,08,16,49,6.90
2010,07,08,16,50,7.50
2010,07,08,16,51,5.50
2010,07,08,16,52,6.90
2010,07,08,16,53,3.90
2010,07,08,16,54,4.70
2010,07,08,16,55,7.20
2010,07,08,16,56,9.70
2010,07,08,16,57,9.20
2010,07,08,16,58,6.70
2010,07,08,16,59,5.50
2010,07,08,17,00,5.40
2010,07,08,17,01,7.20
2010,07,08,17,02,8.80
2010,07,08,17,03,9.60
2010,07,08,17,04,6.90
2010,07,08,17,05,7.20
2010,07,08,17,06,10.40
2010,07,08,17,07,8.40
2010,07,08,17,08,10.50
2010,07,08,17,09,10.00
2010,07,08,17,10,7.30
2010,07,08,17,11,6.50
2010,07,08,17,12,7.30
2010,07,08,17,13,8.60
2010,07,08,17,14,10.70
2010,07,08,17,15,9.70
2010,07,08,17,16,5.20
2010,07,08,17,17,7.70
2010,07,08,17,18,2.60
2010,07,08,17,19,2.30
2010,07,08,17,20,6.80
2010,07,08,17,21,8.00
2010,07,08,17,22,11.20
2010,07,08,17,23,8.10
2010,07,08,17,24,10.30
2010,07,08,17,25,7.40
2010,07,08,17,26,8.40
2010,07,08,17,27,7.30
2010,07,08,17,28,4.30
2010,07,08,17,29,8.90
2010,07,08,17,30,4.70
2010,07,08,17,31,5.30
2010,07,08,17,32,7.40
2010,07,08,17,33,10.20
2010,07,08,17,34,6.20
2010,07,08,17,35,3.80
2010,07,08,17,36,5.70
2010,07,08,17,37,7.60
2010,07,08,17,38,6.40
2010,07,08,17,39,4.80
2010,07,08,17,40,5.10
2010,07,08,17,41,9.70
2010,07,08,17,42,10.40
2010,07,08,17,43,9.80
2010,07,08,17,44,9.80
2010,07,08,17,45,10.90
2010,07,08,17,46,10.00
2010,07,08,17,47,12.50
2010,07,08,17,48,8.90
2010,07,08,17,49,8.90
2010,07,08,17,50,12.40
2010,07,08,17,51,9.70
2010,07,08,17,52,6.80
2010,07,08,17,53,4.80
2010,07,08,17,54,4.60
2010,07,08,17,55,11.80
2010,07,08,17,56,7.80
2010,07,08,17,57,6.80
2010,07,08,17,58,9.00
2010,07,08,17,59,8.80
2010,07,08,18,00,9.00
2010,07,08,18,01,5.90
2010,07,08,18,02,4.90